SL-16 DEB, 42246

Orbit data source: Space-Track

SL-16 DEB, 42246 is space debris in LEO originally from a launch on Fri, 26 Mar 1993 UTC launched from the Tyuratam Missile And Space Complex (TTMTR). Debris objects in space refer to the collection of defunct objects orbiting the Earth. Examples of debris include non-operational satellites, rocket bodies, and fragments generated from explosions, collisions, or faulty payload assembly.

Loading next visibility...
Identifier
42246, 1993-016DA
Orbit
LEO
Country
Flag of CISCIS
Related business
Manufacturer
Unknown
Mission
Spacecraft
Bus & Motor
Unknown
Mass
Unknown
Launch date (UTC)
1993-03-26 (32 years ago)
Launch vehicle
Unknown
Launch site
Tyuratam Missile And Space Complex (TTMTR)
Object type
Payload
Rocket body
Debris
Shape & HBR
Unknown
Radar Cross Section
Small (<0.1 m²)

Expand to show TLE details & history
Last TLE update: 1 year ago

TLE from 1 year ago
0 SL-16 DEB
1 42246U 93016DA  24129.61691938  .00025194  00000-0  70294-2 0  9993
2 42246  70.9456 111.8077 0096516 272.2374  86.7715 14.43454396544673
Epoch: 2024-05-08T14:48Z
TLE epoch observation values (Epoch: 2024-05-08T14:48:21.834Z)
Latitude
0.00004°
Longitude
22.79318°
Altitude
746.325 km
Speed
7.484 km/s
True Right ascension
07h 27m 13s
True Declination
0° 00' 00"
Sunlit
Object was in daylight at epoch
Visualization orbit readout
Latitude
Unknown
Longitude
Unknown
Altitude
Unknown
Speed
Unknown
Apparent Right ascension
Unknown
Apparent Declination
Unknown
Sunlit
N/A
Visualization observer readout
Local Sidereal Time
13:50:21
Azimuth
Unknown
Elevation
Unknown
Doppler factor
Unknown
Orbital elements
Apogee altitude
813.76 km
Perigee altitude
676.26 km
Semi-major axis
7,123.147 km
Eccentricity
0.00965
Inclination
70.9456°
RAAN
111.8077°
Arg. of periapsis
272.2374°
True anomaly
87.87642°
Mean anomaly
86.7715°
Eccentric anomaly
87.32389°
Mean motion
3.61023 °/min
Orbital period
99.72 mins
BSTAR
0.0070294
Loading maneuver chart data...
Computing Atmospheric mass density...
Loading historical data...
Loading historical data...
Loading historical data...
Loading historical data...
Loading historical data...
Loading historical data...
Loading historical data...

Documentation

Showing up to 5 results
|